Home > Time Zones > World Clock > Weather > U.S.A. > Nome > Past weeks

Flag for U.S.A. Weather past 2 weeks in Nome, Alaska, U.S.A.

Now
22 °F

Overcast.


Feels Like: 7 °F
Forecast: 18 / 31 °F
Wind: 18 mph from East

Location: Nome Airport

Current Time: Mar 2, 2015 at 6:19:19 AM

Latest Report: Mar 2, 2015 at 5:53 AM


Visibility: 10 mi

Pressure: 30.05 "Hg

Humidity: 68%

Dew point: 13 °F

Location of NomeLocation

Historic Weather in Nome — Graph

°F

Nome temperature yesterday

Maximum temperature yesterday: 20 °F (at 12:53 PM)
Minimum temperature yesterday: 11 °F (at 12:53 AM)
Average temperature yesterday: 17 °F

Past Weeks' High & Low Weather Summary

 TemperatureHumidityPressure
High39 °F (Feb 21, 6:53 AM)100% (Feb 15, 9:53 AM)30.56 "Hg (Feb 15, 9:53 AM)
Low2 °F (Feb 28, 9:55 AM)57% (Feb 21, 6:53 AM)29.30 "Hg (Feb 16, 10:53 PM)
Average25 °F91%29.89 "Hg
* Reported Feb 15 4:53 AM — Mar 2 4:53 AM, Nome, Weather by CustomWeather, © 2015

Note: Actual official high and low records may vary slightly from our data, if they occured in-between our weather recording intervals... More about our weather records

Advertising

Nome weather history for previous 24 hours

 ConditionsComfort  
Time TempWeatherWind HumidityBarometerVisibility
4:53 AM
Mon, Mar 2
21 °FOvercast.21 mph74%30.06 "Hg10 mi
3:53 AM20 °FOvercast.20 mph78%30.09 "Hg10 mi
2:53 AM20 °FMostly cloudy.18 mph78%30.13 "Hg10 mi
1:53 AM20 °FMostly cloudy.20 mph78%30.14 "Hg10 mi
12:53 AM20 °FOvercast.20 mph78%30.16 "Hg10 mi
11:53 PM
Sun, Mar 1
19 °FPassing clouds.20 mph77%30.17 "Hg10 mi
10:53 PM19 °FPassing clouds.17 mph77%30.19 "Hg10 mi
9:53 PM20 °FMostly cloudy.18 mph71%30.20 "Hg10 mi
8:53 PM19 °FPassing clouds.17 mph71%30.23 "Hg10 mi
7:53 PM19 °FPassing clouds.18 mph74%30.24 "Hg10 mi
6:53 PM19 °FPartly sunny.20 mph74%30.27 "Hg10 mi
5:53 PM18 °FScattered clouds.17 mph77%30.28 "Hg10 mi
4:53 PM17 °FScattered clouds.16 mph80%30.32 "Hg10 mi
3:53 PM18 °FScattered clouds.21 mph77%30.36 "Hg10 mi
2:53 PM18 °FScattered clouds.20 mph77%30.38 "Hg10 mi
1:53 PM19 °FSunny.21 mph71%30.40 "Hg10 mi
12:53 PM20 °FScattered clouds.20 mph65%30.42 "Hg10 mi
11:53 AM19 °FBroken clouds.20 mph71%30.44 "Hg10 mi
10:53 AM17 °FBroken clouds.15 mph76%30.46 "Hg10 mi
9:53 AM16 °FMore clouds than sun.14 mph80%30.47 "Hg10 mi
8:53 AM16 °FMostly cloudy.17 mph80%30.49 "Hg10 mi
7:53 AM15 °FMostly cloudy.14 mph83%30.50 "Hg10 mi
6:53 AM15 °FPassing clouds.14 mph83%30.51 "Hg10 mi
Weather by CustomWeather, © 2015

See weather overviewHow to use our weather pages